SL-8 R/B (21876 NORAD) Tracking and Keplerian Element Data

This shows tracking and keplerian element data for the satellite.

Feedback or suggestion? Click here.




ElementValue
Catalog21876
NameSL-8 R/B
Epoch Orbit60122
Epoch Day12.89055839
Epoch Year2024
RAAN132.8264
Inclination82.9283
Eccentricity0.0035164
Argument of Perigee170.0829
Mean Anonmoly309.4569
Mean Motion13.7578684
Decay Rate1.08E-06
L11 21876U 92008B 24012.89055839 .00000108 00000+0 95033-4 0 9991
L22 21876 82.9283 132.8264 0035164 170.0829 309.4569 13.75786840601226



Live tracking and technical data element details for SL-8 R/B (NORAD 21876). SL-8 R/B can be tracked NOW for your location showing map with azimuth and elevation plus other details from your city location.







IsCatalogInMostPopularTable: catalog: 21876, numindb: 358
Update: records affected: 1



GetName: 21876 SL-8 R/B

Hit Count: updated at: Sun, 14 Apr 2024 23:44:36 GMT